Find Kosmos-2585

NORAD ID: 63288 Int'l Des: 2025-054 Owner: VVKOV Country: RU operational
LEOCIRCULARPOLAR

Aktuelle Ansicht

3D-Globus wird geladen...

Über Kosmos-2585

Beschreibung wird geladen...

Nächste Überflüge

Passes for default location (London). Set your location on the main map for personalized predictions.

Höhenverlauf

Loading altitude history...

Zweizeiliger Elementsatz

1 63288U 25054A 26151.55679700 .00000027 00000-0 11954-3 0 9999
2 63288 82.4931 88.9925 0025778 71.4295 288.9582 12.42866574 54796
Epoch: 31. Mai 2026 • Age: 6 hours

Aktueller Status

Höhe 1490.8 km
Geschwindigkeit 7.13 km/s
Subsatellitenpunkt 64.61°N, 66.92°E
Startdatum 16. März 2025
Alter 1.2 years
Typ other

Technische Details

Klassifizierung Payload
Masse 280.00 kg
Trockenmasse 280.00 kg
Gesamtmasse 280.00 kg
Länge 1.60 m
Durchmesser 0.80 m
Spannweite 7.00 m
Form Cyl + Ant
Hersteller RESH
Bus-Typ Strela-3M
Phasenstatus In Orbit
Besitzer/Staat VVKOV/RU

Most Searched